This is the latest recevied weather packets stored in our database for station/object wb2ifs-13. If no packets are shown the sender has not sent any weather packets the latest 10 day(s).
| Time | Temp. | Humidity | Pressure | Rain* | Wind** | Luminosity | Snow |
|---|---|---|---|---|---|---|---|
| 1777447799 | 10.56° C | 81% | 1015.8 hPa | 0 mm | - | - | - |
| 1777446898 | 10.56° C | 80% | 1015.9 hPa | 0 mm | - | - | - |
| 1777445998 | 11.11° C | 79% | 1016 hPa | 0 mm | - | - | - |
| 1777445099 | 11.11° C | 78% | 1016.2 hPa | 0 mm | - | - | - |
| 1777444199 | 11.67° C | 78% | 1016.8 hPa | 0 mm | - | - | - |
| 1777443299 | 11.11° C | 78% | 1016.9 hPa | 0 mm | - | - | - |
| 1777442399 | 11.11° C | 79% | 1016.9 hPa | 0 mm | - | - | - |
| 1777441498 | 11.67° C | 78% | 1017 hPa | 0 mm | - | - | - |
| 1777440599 | 11.67° C | 77% | 1017.4 hPa | 0 mm | - | - | - |
| 1777439698 | 11.67° C | 77% | 1017.7 hPa | 0 mm | - | - | - |
| 1777438801 | 11.11° C | 77% | 1018 hPa | 0 mm | - | - | - |
| 1777437902 | 11.11° C | 77% | 1018.2 hPa | 0 mm | - | - | - |
| 1777437001 | 11.11° C | 78% | 1018.2 hPa | 0 mm | - | - | - |
| 1777436101 | 11.67° C | 79% | 1018.3 hPa | 0 mm | - | - | - |
| 1777435204 | 11.67° C | 79% | 1018 hPa | 0 mm | - | - | - |
| 1777434300 | 12.22° C | 79% | 1017.9 hPa | 0 mm | - | - | - |
| 1777433403 | 12.22° C | 79% | 1018.1 hPa | 0 mm | - | - | - |
| 1777432500 | 12.22° C | 79% | 1018.3 hPa | 0 mm | - | - | - |
| 1777431601 | 12.22° C | 81% | 1018.3 hPa | 0 mm | - | - | - |
| 1777430699 | 12.22° C | 82% | 1018.2 hPa | 0 mm | - | - | - |
| 1777429801 | 11.67° C | 84% | 1018.6 hPa | 0 mm | - | - | - |
| 1777428899 | 11.67° C | 85% | 1019 hPa | 0 mm | - | - | - |
| 1777428001 | 12.22° C | 82% | 1018.4 hPa | 0 mm | - | - | - |
| 1777427825 | 12.22° C | 81% | 1018.5 hPa | 0 mm | - | - | - |
| 1777426203 | 12.78° C | 81% | 1017.5 hPa | 0 mm | - | - | - |
* Rain latest hour (hover to see other rain measurements)
** Current wind speed in m/s (hover to see current wind gust speed)